[[{"header":{"parameterUnit":"m.s-1","parameterCategory":1,"la1":30.2991,"la2":30.254,"lo1":-89.0895,"lo2":-89.0444,"dy":0.0017,"dx":0.0017,"nx":28,"ny":28,"refTime":"2024-06-30T21:00:00:Z","depth":0,"parameterNumber":2,"parameterNumberName":"U-component_of_WINDS"},"data":[0,0,0,0,0,0,0,0,0,0,0,0,0,0,0,0,0,0,0,0,0,0,0,0,0,0,0,0,0,0,0,0,0,0,0,0,0,0,0,0,0,0,0,0,0,0,0,0,0,0,0,0,0,0,0,0,0,0,1.7335,1.7337,0,1.7494,1.7496,1.7498,1.753,1.7529,1.7528,1.7527,1.769,1.7695,1.7701,0,0,0,0,0,0,0,0,0,0,0,0,0,1.7061,1.7066,1.7335,1.7337,1.7339,1.7494,1.7496,1.7498,1.7531,1.7529,1.7528,1.7526,1.7688,1.7695,1.7701,0,0,0,0,0,0,0,0,0,0,0,0,0,1.7196,1.7067,1.7335,1.7374,1.7379,1.7493,1.7496,1.7499,1.7531,1.7529,1.7527,1.7526,1.7686,1.7694,1.7702,1.7789,0,0,1.7727,1.7731,0,0,0,0,0,0,0,0,1.7188,1.7206,1.7366,1.7371,1.7377,1.7491,1.7459,1.7596,1.7531,1.7473,1.7527,1.7525,1.7625,1.7638,1.7672,1.7797,1.7804,1.7728,1.7733,1.7737,1.7739,0,0,0,0,0,0,0,1.7179,1.7199,1.7398,1.7368,1.7375,1.7384,1.7401,1.7485,1.7557,1.7478,1.7481,1.7499,1.7628,1.7664,1.7676,1.7806,1.7728,1.7735,1.774,1.7743,1.8011,1.8013,0,0,0,0,0,0,1.7162,1.7191,1.7393,1.7403,1.7276,1.739,1.7409,1.7456,1.7557,1.757,1.7501,1.75,1.7651,1.7667,1.7682,1.779,1.7736,1.7744,1.7749,1.8009,1.8011,1.8014,0,0,0,0,0,0,1.7156,1.718,1.7386,1.7298,1.7325,1.7397,1.7449,1.746,1.7496,1.7574,1.7587,1.7524,1.765,1.7671,1.7762,1.7797,1.7748,1.7755,1.8006,1.801,1.8013,1.8008,0,0,0,0,0,0,1.7148,1.7178,1.7211,1.7298,1.7329,1.7463,1.7451,1.7464,1.751,1.7511,1.7599,1.7612,1.765,1.775,1.777,1.7807,1.7762,1.8003,1.8008,1.8011,1.8005,1.801,1.8015,0,0,0,0,0,1.7138,1.7203,1.7212,1.7236,1.7372,1.7465,1.7483,1.7526,1.7513,1.7547,1.7597,1.7609,1.779,1.7759,1.7783,1.7822,1.8001,1.8006,1.8011,1.8003,1.8009,1.8015,0,0,0,0,0,0,1.7117,1.7215,1.7226,1.7321,1.7385,1.7471,1.7515,1.7531,1.76,1.7598,1.7648,1.7668,1.7756,1.7799,1.7763,1.7912,1.7895,1.7905,1.7881,1.7887,1.7892,1.788,1.7769,0,0,0,0,0,1.7124,1.7191,1.7273,1.7349,1.738,1.7442,1.7484,1.7512,1.758,1.7607,1.7663,1.7729,1.7801,1.7846,1.7917,1.8012,1.8032,1.8051,1.8056,1.8059,1.8067,1.8121,1.813,1.803,1.803,1.803,0,0,1.7137,1.7199,1.7238,1.7346,1.7398,1.7467,1.7464,1.7537,1.7589,1.7618,1.7708,1.7752,1.7829,1.7922,1.7967,1.796,1.8099,1.8065,1.8068,1.8074,1.8127,1.8136,1.8144,1.8033,1.8033,1.8032,0,0,1.7197,1.7251,1.732,1.7373,1.7453,1.7494,1.7511,1.7595,1.7625,1.7716,1.774,1.7803,1.7925,1.7979,1.8022,1.8104,1.8118,1.8126,1.8151,1.8203,1.8211,1.8218,1.8247,1.8257,1.8134,1.8134,1.8134,0,1.7204,1.7308,1.7354,1.7426,1.7472,1.7503,1.7573,1.7623,1.7721,1.7753,1.7745,1.7899,1.7953,1.806,1.808,1.8115,1.8135,1.8115,1.8206,1.8214,1.8221,1.825,1.8261,1.8134,1.8134,1.8134,1.8134,0,1.7313,1.7385,1.7432,1.7526,1.7579,1.7649,1.7706,1.7754,1.7777,1.7819,1.7912,1.7978,1.8063,1.8091,1.8114,1.8202,1.8195,1.8196,1.818,1.823,1.8258,1.8269,1.8134,1.8134,1.8134,1.8134,0,0,1.7362,1.7482,1.7498,1.7542,1.7633,1.769,1.7763,1.7846,1.7885,1.7953,1.8015,1.8119,1.8121,1.817,1.82,1.8246,1.8307,1.8242,1.8244,1.8251,1.8408,1.8405,1.8417,1.8318,1.832,1.8322,1.8401,0,1.7433,1.7563,1.7607,1.7716,1.7783,1.7814,1.7877,1.794,1.7982,1.8046,1.8093,1.8165,1.8162,1.8192,1.8239,1.829,1.8339,1.8285,1.8376,1.8379,1.8354,1.8432,1.843,1.8501,1.8412,1.8414,1.8415,0,1.7532,1.7601,1.7716,1.78,1.783,1.7886,1.7966,1.8027,1.8099,1.8127,1.8182,1.821,1.8288,1.8268,1.8376,1.8339,1.8379,1.841,1.8414,1.8423,1.8399,1.8442,1.8525,1.8535,1.8433,1.8431,1.843,0,1.7556,1.7678,1.7763,1.78,1.7899,1.7938,1.7982,1.8052,1.81,1.817,1.8201,1.8279,1.8322,1.8382,1.843,1.8411,1.8534,1.8518,1.8559,1.8558,1.8582,1.8579,1.8671,1.861,1.8609,1.8609,1.8609,0,1.7629,1.7698,1.7775,1.7827,1.7906,1.7956,1.8033,1.8078,1.8141,1.8203,1.8235,1.8292,1.8352,1.8418,1.8456,1.854,1.8559,1.8584,1.8593,1.858,1.8577,1.8606,1.8602,1.8612,1.8612,1.8611,1.861,0,1.7668,1.7722,1.7817,1.7904,1.7928,1.7982,1.8057,1.8109,1.8153,1.8231,1.8252,1.8321,1.84,1.8454,1.8555,1.8581,1.8671,1.868,1.8646,1.8651,1.8688,1.8683,1.8801,1.8818,1.8745,1.8746,1.8747,0,1.7711,1.7765,1.7858,1.7902,1.7945,1.8015,1.8064,1.8116,1.8165,1.8253,1.8295,1.8376,1.8443,1.8568,1.8627,1.8705,1.8715,1.8751,1.8727,1.8713,1.8715,1.8711,1.8716,1.8754,1.8755,1.8755,1.8756,0,1.778,1.7805,1.7874,1.7952,1.801,1.8074,1.8139,1.8173,1.8236,1.829,1.8371,1.8424,1.8528,1.8608,1.8691,1.8737,1.8757,1.8763,1.8777,1.8763,1.8741,1.8753,1.8655,1.876,1.8759,1.8759,1.8759,1.8759,1.7822,1.7872,1.7946,1.8021,1.8076,1.8136,1.8189,1.824,1.8309,1.8397,1.8424,1.8508,1.8581,1.8695,1.8742,1.8809,1.8806,1.8825,1.883,1.8834,1.8833,1.8732,1.8825,1.8825,1.8825,1.8825,1.8825,0,1.7893,1.7942,1.8012,1.8101,1.8161,1.8176,1.8249,1.8298,1.8371,1.8438,1.8504,1.8597,1.8675,1.8742,1.8823,1.8864,1.8875,1.8883,1.888,1.889,1.8832,1.8812,1.8872,1.8872,1.8872,1.8872,1.8872,1.8872,1.7937,1.8022,1.8055,1.8168,1.8217,1.8299,1.834,1.8395,1.8448,1.8551,1.8617,1.8659,1.8726,1.8812,1.8885,1.8903,1.893,1.8936,1.8956,1.89,1.8894,1.8889,1.887,1.8942,1.8942,1.9008,1.9009,1.9009]},{"header":{"parameterUnit":"m.s-1","parameterCategory":1,"la1":30.2991,"la2":30.254,"lo1":-89.0895,"lo2":-89.0444,"dy":0.0017,"dx":0.0017,"nx":28,"ny":28,"refTime":"2024-06-30T21:00:00:Z","depth":0,"parameterNumber":3,"parameterNumberName":"V-component_of_WINDS"},"data":[0,0,0,0,0,0,0,0,0,0,0,0,0,0,0,0,0,0,0,0,0,0,0,0,0,0,0,0,0,0,0,0,0,0,0,0,0,0,0,0,0,0,0,0,0,0,0,0,0,0,0,0,0,0,0,0,0,0,1.6367,1.6367,0,1.6382,1.6382,1.6382,1.639,1.639,1.639,1.639,1.6403,1.6403,1.6404,0,0,0,0,0,0,0,0,0,0,0,0,0,1.6339,1.6339,1.6366,1.6367,1.6367,1.6382,1.6382,1.6382,1.639,1.639,1.639,1.639,1.6403,1.6403,1.6404,0,0,0,0,0,0,0,0,0,0,0,0,0,1.6352,1.634,1.6366,1.6372,1.6373,1.6382,1.6382,1.6383,1.639,1.639,1.639,1.639,1.6403,1.6403,1.6404,1.6407,0,0,1.6405,1.6406,0,0,0,0,0,0,0,0,1.6351,1.6353,1.6371,1.6372,1.6373,1.6384,1.6377,1.6391,1.639,1.6383,1.639,1.639,1.6396,1.6398,1.64,1.6408,1.6408,1.6405,1.6406,1.6406,1.6406,0,0,0,0,0,0,0,1.6351,1.6353,1.6373,1.6372,1.6372,1.6373,1.6375,1.638,1.639,1.6384,1.6384,1.6386,1.6397,1.64,1.6401,1.6409,1.6405,1.6406,1.6406,1.6406,1.6417,1.6417,0,0,0,0,0,0,1.6349,1.6352,1.6372,1.6373,1.6362,1.6373,1.6375,1.638,1.639,1.6391,1.6386,1.6387,1.6399,1.64,1.6401,1.6404,1.6406,1.6407,1.6407,1.6417,1.6417,1.6417,0,0,0,0,0,0,1.6349,1.6351,1.6371,1.6363,1.6365,1.6374,1.6379,1.6381,1.6384,1.6392,1.6393,1.6388,1.6399,1.64,1.6405,1.6405,1.6407,1.6407,1.6417,1.6417,1.6417,1.6412,0,0,0,0,0,0,1.6348,1.6351,1.6353,1.6363,1.6366,1.6377,1.6379,1.6381,1.6385,1.6385,1.6393,1.6395,1.6399,1.6404,1.6406,1.6406,1.6408,1.6417,1.6417,1.6417,1.6412,1.6411,1.6411,0,0,0,0,0,1.6347,1.6351,1.6353,1.6356,1.6369,1.6377,1.6378,1.6384,1.6385,1.6387,1.6391,1.6394,1.6405,1.6405,1.6407,1.6407,1.6417,1.6417,1.6417,1.6412,1.6412,1.6411,0,0,0,0,0,0,1.6341,1.6353,1.6355,1.6363,1.6369,1.6378,1.6381,1.6384,1.6389,1.6389,1.6395,1.6397,1.64,1.6404,1.6404,1.6409,1.6411,1.6411,1.6407,1.6406,1.6406,1.6405,1.6408,0,0,0,0,0,1.6341,1.6347,1.6356,1.6362,1.6365,1.6372,1.6376,1.6379,1.6385,1.6388,1.6393,1.6397,1.6401,1.6404,1.6409,1.6412,1.6413,1.6413,1.6412,1.6412,1.6412,1.6412,1.6412,1.6417,1.6417,1.6417,0,0,1.6341,1.6347,1.6351,1.6361,1.6366,1.6371,1.6374,1.638,1.6382,1.6388,1.6393,1.6396,1.6402,1.6406,1.6408,1.6409,1.6411,1.6412,1.6412,1.6412,1.6412,1.6411,1.6411,1.6416,1.6416,1.6417,0,0,1.6342,1.6349,1.6353,1.6358,1.6365,1.637,1.637,1.6379,1.6381,1.6386,1.639,1.6393,1.64,1.6403,1.6406,1.6406,1.6408,1.6407,1.6405,1.6405,1.6404,1.6404,1.6402,1.6402,1.6407,1.6407,1.6407,0,1.634,1.6349,1.6355,1.636,1.6363,1.6368,1.6372,1.6376,1.6384,1.6386,1.6387,1.6395,1.6399,1.6403,1.6402,1.6405,1.6405,1.6406,1.6404,1.6404,1.6403,1.6402,1.6401,1.6407,1.6407,1.6407,1.6407,0,1.6345,1.6351,1.6353,1.6361,1.6365,1.6369,1.6374,1.6377,1.638,1.6383,1.6387,1.6392,1.6396,1.6397,1.6401,1.6401,1.6401,1.6403,1.6405,1.6403,1.6401,1.6401,1.6406,1.6406,1.6406,1.6407,0,0,1.6345,1.6355,1.6356,1.6358,1.6366,1.6369,1.6372,1.6377,1.6379,1.6383,1.6385,1.639,1.6392,1.6394,1.6397,1.6397,1.6395,1.6399,1.6399,1.6397,1.6393,1.6391,1.6391,1.6396,1.6396,1.6396,1.6392,0,1.6347,1.6354,1.6359,1.6363,1.6367,1.6371,1.6373,1.6377,1.638,1.6383,1.6385,1.6388,1.6391,1.6392,1.6392,1.6395,1.6394,1.6395,1.6396,1.6396,1.6395,1.639,1.6389,1.6385,1.6392,1.6392,1.6392,0,1.635,1.6355,1.636,1.6365,1.6366,1.6369,1.6372,1.6375,1.6378,1.638,1.6382,1.6385,1.6387,1.6388,1.639,1.639,1.6391,1.6392,1.6392,1.6392,1.6394,1.6389,1.6384,1.6383,1.6391,1.6391,1.6391,0,1.6348,1.6355,1.6359,1.6361,1.6367,1.6368,1.637,1.6374,1.6376,1.6378,1.6379,1.6382,1.6383,1.6384,1.6386,1.6388,1.6387,1.6389,1.6387,1.6387,1.6387,1.6386,1.6381,1.6388,1.6388,1.6388,1.6388,0,1.6349,1.6352,1.6357,1.636,1.6362,1.6366,1.6368,1.637,1.6373,1.6374,1.6377,1.6378,1.6382,1.6382,1.6384,1.6384,1.6385,1.6385,1.6385,1.6384,1.6384,1.6385,1.6385,1.6388,1.6388,1.6388,1.6388,0,1.6347,1.6351,1.6355,1.636,1.6361,1.6362,1.6366,1.6367,1.6369,1.6371,1.6371,1.6375,1.6375,1.6378,1.638,1.6381,1.6379,1.6381,1.6378,1.6378,1.6376,1.6376,1.6369,1.6368,1.6377,1.6377,1.6377,0,1.6348,1.635,1.6354,1.6355,1.6358,1.636,1.6361,1.6365,1.6366,1.6369,1.6369,1.637,1.6371,1.6372,1.6374,1.6374,1.6375,1.6373,1.6375,1.6373,1.6374,1.6373,1.6373,1.6372,1.6372,1.6372,1.6372,0,1.6347,1.6348,1.6351,1.6353,1.6355,1.6357,1.6359,1.636,1.6363,1.6364,1.6365,1.6366,1.6367,1.6367,1.6368,1.6369,1.637,1.6371,1.637,1.6369,1.6367,1.6367,1.6376,1.6371,1.6371,1.6371,1.6371,1.6371,1.6345,1.6347,1.635,1.6351,1.6353,1.6355,1.6355,1.6357,1.6359,1.636,1.6361,1.6362,1.6363,1.6363,1.6364,1.6363,1.6364,1.6364,1.6363,1.6363,1.6362,1.6368,1.6363,1.6363,1.6363,1.6363,1.6363,0,1.6344,1.6346,1.6347,1.635,1.6351,1.6353,1.6354,1.6355,1.6355,1.6356,1.6357,1.6357,1.6356,1.6358,1.6357,1.6356,1.6357,1.6356,1.6356,1.6355,1.6362,1.6362,1.6355,1.6355,1.6355,1.6355,1.6355,1.6355,1.6343,1.6345,1.6346,1.6347,1.6349,1.6349,1.635,1.635,1.6351,1.6351,1.6351,1.6352,1.6352,1.6351,1.635,1.6351,1.635,1.6348,1.6349,1.6354,1.6355,1.6356,1.6356,1.6348,1.6348,1.6342,1.6342,1.6342]}]]